Skip Page Navigation
NASA JPL Caltech
NASA Logo - Jet Propulsion Laboratory + View the NASA Portal
+ Near-Earth Object (NEO) Program
Search JPL
JPL Home Earth Solar System Stars & Galaxies Technology
JPL Solar System Dynamics
BODIES ORBITS EPHEMERIDES TOOLS PHYSICAL DATA DISCOVERY FAQ SITE MAP
JPL Small-Body Database Browser
Search: [ help ]  
7294 (1992 LM)
Classification: Main-belt Asteroid          SPK-ID: 2007294
Ephemeris | Orbit Diagram | Orbital Elements | Physical Parameters | Discovery Circumstances ]

[ show orbit diagram ]
Orbital Elements at Epoch 2456800.5 (2014-May-23.0) TDB
Reference: JPL 3 (heliocentric ecliptic J2000)
 Element Value Uncertainty (1-sigma)   Units 
e .09004524990013647 6.592e-08  
a 2.659823576976504 2.4051e-08 AU
q 2.42031909829738 1.7925e-07 AU
i 6.70903565921914 6.8275e-06 deg
node 74.1595592136905 6.2223e-05 deg
peri 72.55266605951084 7.5284e-05 deg
M 109.1184294526197 4.1155e-05 deg
tp 2456320.243468886563
(2013-Jan-27.74346889)
0.00018116 JED
period 1584.446844296902
4.34
2.1491e-05
5.884e-08
d
yr
n .2272086320193026 3.0818e-09 deg/d
Q 2.899328055655629 2.6217e-08 AU
  Orbit Determination Parameters
   # obs. used (total)      952  
   data-arc span      8693 days (23.80 yr)  
   first obs. used      1989-09-02  
   last obs. used      2013-06-21  
   planetary ephem.      DE431  
   SB-pert. ephem.      SB431-BIG16  
   condition code      0  
   fit RMS      .50311  
   data source      ORB  
   producer      Otto Matic  
   solution date      2014-Jun-09 18:56:41  

Additional Information
 Earth MOID = 1.44287 AU 
 T_jup = 3.371 
[ show covariance matrix ]

Ephemeris | Orbit Diagram | Orbital Elements | Physical Parameters | Discovery Circumstances ]

Physical Parameter Table
Parameter Symbol Value Units Sigma Reference Notes
absolute magnitude H 12.8 mag n/a PDS3 (MPC 28287)  

7294 (1992 LM)          Discovered 1992-Jun-03 by Leonard, G. J. at Palomar (675)
Reference: DISCOVERY.DBLast Updated: 2003-08-29
Ephemeris | Orbit Diagram | Orbital Elements | Physical Parameters | Discovery Circumstances ]
ABOUT SSD CREDITS/AWARDS PRIVACY/COPYRIGHT GLOSSARY LINKS
FirstGov 2014-Jul-24 19:15 UT
(server date/time)  
NASA Home Page
Site Manager:   Donald K. Yeomans
Webmaster  Alan B. Chamberlin